Torna al catalogo

PEGASUS DEB

AttivoPO
NORAD 39315·DEBRIS·🇺🇸 United States

Lanciato May 19, 1994 da Vandenberg Space Force Base

Loading…

Prossimi Passaggi (prossime 24 ore)

TLE

AggiornatoSource: Space-Track

Epoca: Sep 14, 2026, 03:44 UTC

1 39315U 94029AFA 26257.15586685  .00000914  00000-0  26719-3 0  9993
2 39315  81.4968 201.4386 0384805 130.5378 232.9986 14.07620473674941

Traccia PEGASUS DEB in tempo reale con AllMySat

Download on the App Store